TimeEDT,TemperatureF,Dew PointF,Humidity,Sea Level PressureIn,VisibilityMPH,Wind Direction,Wind SpeedMPH,Gust SpeedMPH,PrecipitationIn,Events,Conditions,WindDirDegrees,DateUTC
12:09 AM,64.4,62.6,94,30.21,10.0,NE,8.1,-,N/A,,Overcast,50,2013-05-02 04:09:00
12:20 AM,64.4,62.6,94,30.21,10.0,ENE,8.1,-,N/A,,Overcast,60,2013-05-02 04:20:00
12:51 AM,64.4,62.6,94,30.20,10.0,ENE,6.9,-,0.00,,Overcast,60,2013-05-02 04:51:00
12:53 AM,64.9,62.1,90,30.21,10.0,ENE,6.9,-,0.00,,Overcast,60,2013-05-02 04:53:00
1:53 AM,64.0,61.0,90,30.20,10.0,NE,10.4,-,0.00,,Overcast,40,2013-05-02 05:53:00
2:11 AM,64.4,60.8,88,30.19,10.0,NE,11.5,-,N/A,,Overcast,50,2013-05-02 06:11:00
2:53 AM,64.0,61.0,90,30.19,10.0,NE,11.5,-,N/A,,Overcast,50,2013-05-02 06:53:00
3:53 AM,63.0,61.0,93,30.18,10.0,NE,13.8,-,N/A,,Overcast,50,2013-05-02 07:53:00
4:49 AM,64.4,60.8,88,30.18,10.0,NE,13.8,-,N/A,,Overcast,40,2013-05-02 08:49:00
4:53 AM,64.0,61.0,90,30.18,10.0,NE,15.0,23.0,N/A,,Overcast,40,2013-05-02 08:53:00
5:07 AM,62.6,60.8,94,30.17,10.0,NE,13.8,18.4,N/A,,Overcast,50,2013-05-02 09:07:00
5:53 AM,63.0,60.1,90,30.18,10.0,NE,12.7,-,N/A,,Overcast,40,2013-05-02 09:53:00
6:53 AM,62.1,59.0,90,30.19,10.0,NE,17.3,21.9,N/A,,Overcast,50,2013-05-02 10:53:00
7:53 AM,62.1,59.0,90,30.21,9.0,ENE,10.4,21.9,N/A,,Overcast,60,2013-05-02 11:53:00
8:53 AM,63.0,59.0,87,30.22,10.0,NNE,12.7,-,N/A,,Overcast,30,2013-05-02 12:53:00
9:49 AM,66.2,60.8,83,30.22,10.0,NE,16.1,20.7,N/A,,Overcast,50,2013-05-02 13:49:00
9:53 AM,66.0,60.1,81,30.22,10.0,NE,13.8,20.7,N/A,,Overcast,40,2013-05-02 13:53:00
10:36 AM,68.0,60.8,78,30.22,10.0,NE,13.8,20.7,N/A,,Mostly Cloudy,40,2013-05-02 14:36:00
10:53 AM,70.0,61.0,73,30.23,10.0,ENE,13.8,-,N/A,,Mostly Cloudy,60,2013-05-02 14:53:00
11:48 AM,71.6,60.8,69,30.22,10.0,NE,9.2,-,N/A,,Overcast,40,2013-05-02 15:48:00
11:53 AM,71.1,61.0,70,30.22,10.0,ENE,12.7,-,N/A,,Overcast,60,2013-05-02 15:53:00
12:11 PM,69.8,60.8,73,30.22,10.0,NE,11.5,-,N/A,,Overcast,40,2013-05-02 16:11:00
12:42 PM,69.8,62.6,78,30.22,10.0,East,11.5,19.6,N/A,,Scattered Clouds,90,2013-05-02 16:42:00
12:53 PM,70.0,61.0,73,30.22,10.0,East,13.8,24.2,N/A,,Partly Cloudy,100,2013-05-02 16:53:00
1:53 PM,72.0,61.0,68,30.22,10.0,East,9.2,19.6,N/A,,Overcast,90,2013-05-02 17:53:00
2:53 PM,71.1,59.0,66,30.22,10.0,ENE,16.1,21.9,N/A,,Overcast,70,2013-05-02 18:53:00
3:53 PM,71.1,60.1,68,30.19,10.0,East,10.4,18.4,N/A,,Overcast,80,2013-05-02 19:53:00
4:12 PM,71.6,60.8,69,30.19,10.0,ENE,15.0,-,N/A,,Overcast,70,2013-05-02 20:12:00
4:53 PM,66.9,61.0,81,30.19,10.0,NE,16.1,25.3,N/A,,Mostly Cloudy,50,2013-05-02 20:53:00
5:37 PM,69.8,60.8,73,30.18,10.0,ENE,19.6,24.2,N/A,,Scattered Clouds,60,2013-05-02 21:37:00
5:53 PM,68.0,59.0,73,30.18,10.0,East,11.5,-,N/A,,Mostly Cloudy,80,2013-05-02 21:53:00
6:53 PM,66.9,57.9,73,30.18,10.0,ENE,10.4,-,N/A,,Overcast,60,2013-05-02 22:53:00
7:53 PM,66.0,57.0,73,30.19,10.0,NE,10.4,-,N/A,,Overcast,50,2013-05-02 23:53:00
8:53 PM,63.0,59.0,87,30.19,10.0,NE,8.1,-,N/A,,Clear,40,2013-05-03 00:53:00
9:53 PM,63.0,57.0,81,30.20,10.0,NE,9.2,-,N/A,,Mostly Cloudy,50,2013-05-03 01:53:00
10:53 PM,63.0,55.9,78,30.18,10.0,ENE,13.8,-,N/A,,Scattered Clouds,60,2013-05-03 02:53:00
11:53 PM,62.1,55.9,80,30.17,10.0,NNE,10.4,-,N/A,,Clear,30,2013-05-03 03:53:00